格洛纳斯-734 COSMOS 1884 [GLONASS]

导读

COSMOS 1884是独联体(CIS,继承自苏联)于1987年9月16日发射的GLONASS全球导航卫星,属于苏联第二代军用导航卫星系统,是GLONASS星座组网阶段的试验工作卫星。它运行在约19100公里的中圆轨道,为系统提供定位、导航、授时服务,支撑海陆空导航、大地测量等应用,是GLONASS系统建设早期的重要组成,推动了全球第二个全球卫星导航系统的组网进程。

基本信息
目录编号:
18356
目录名称:
COSMOS 1884 (GLONASS)
国际标识:
1987-079B
轨道中心:
EARTH
卫星名称:
格洛纳斯-734
卫星全名:
格洛纳斯-734 COSMOS 1884 [GLONASS]
卫星状态:
在轨 (已飞行14158 天)
发射日期:
1987-09-16 UTC
国别 :
俄罗斯(独联体) (CIS)
星等 :
--
轨道信息
数据来源 国际轨道数据 AOE轨道数据
星历时间 2026-06-15T08:15:16+0800
6天前
查看轨道信息
2026-06-16T04:00:00+0800
5天前
查看轨道信息
半长轴 25507.953km 25507.889km
偏心率 0.0020585 0.0020675
轨道倾角 65.623° 65.623°
近地点辐角 206.169° 206.165°
升交点赤经 319.159° 319.131°
平近点角 191.710° 102.886°
近地点 19077.307km 19077.014km
远地点 19182.325km 19182.49km
周期 675.730分钟 675.727分钟
每日圈数 2.131029 2.131037
详细信息
平衡模式:
三轴稳定
覆盖范围:
全球
运营商:
列舍特涅夫卫星信息系统
运营商所在国:
俄罗斯
制造商(研发单位):
列舍特涅夫卫星信息系统
制造商所在国:
俄罗斯
使用方式:
暂无
卫星简介
格洛纳斯(GLONASS )是苏联/俄罗斯研制卫星导航系统。标准配置为24颗卫星,其中18颗卫星就能保证该系统为俄罗斯境内用户提供全部服务。该卫星已退役。
2D轨道图
3D轨道图
轨道高度分析图
轨道倾角分析图
轨道综合分析图
查看轨道综合分析图